Weather Roundup
Issued by NWS

Home | Current Version | Previous Version | Graphics & Text | Print | Product List | Glossary Off
Versions: 1 2 3 4 5 6 7 8 9 10 11 12 13 14 15 16 17 18 19 20 21 22 23 24 25 26 27 28 29 30 31 32 33 34 35 36 37 38 39 40 41 42 43 44 45 46 47 48 49 50

000
NZUS93 KARX 312259
HRRWXR

CURRENT HOURLY OBSERVATIONS ACROSS
MUCH OF THE UPPER MISSISSIPPI VALLEY
NATIONAL WEATHER SERVICE LA CROSSE WI
600 PM CDT SUN AUG 31 2014


...SOUTHEAST MINNESOTA...


CITY           SKY/WX    TMP DP  RH WIND       PRES   REMARKS
ROCHESTER      CLOUDY    81  71  71 S15       29.75F
ROCHESTER/MAYO FAIR      82  68  62 SE10G16   29.73F
WINONA         PTSUNNY   81  68  65 S6        29.74S
AUSTIN         CLOUDY    81  68  65 S15G22    29.74F
ALBERT LEA     LGT RAIN  79  64  61 S10G21    29.74R
DODGE CENTER   CLOUDY    81  72  74 S10       29.73F
PRESTON        PTSUNNY   81  75  81 S8        29.77F
OWATONNA       CLOUDY    81  68  65 SW9       29.72R
FARIBAULT      CLOUDY    84  64  51 S10       29.70S
$$

...ELSEWHERE IN MINNESOTA...


CITY           SKY/WX    TMP DP  RH WIND       PRES   REMARKS
MINNEAPOLIS    CLOUDY    81  68  64 SW10      29.67F
INTNL FALLS    PTSUNNY   69  63  81 SE14      29.56F
DULUTH         CLOUDY    68  62  81 E7        29.67F
RED WING       CLOUDY    84  70  61 S10       29.68F
REDWOOD FALLS  PTSUNNY   82  68  62 S13       29.65F
MANKATO        CLOUDY    75  66  73 S7        29.70S
WORTHINGTON    PTSUNNY   75  66  73 S7        29.72S
FAIRMONT       CLOUDY    70  63  78 S15       29.73R THUNDER
$$

...SOUTHWEST WISCONSIN...


CITY           SKY/WX    TMP DP  RH WIND       PRES   REMARKS
LA CROSSE      MOSUNNY   84  69  60 S14       29.76R
PRAIRIE DU CHI MOSUNNY   82  66  57 SE7       29.79S
BOSCOBEL       SUNNY     84  66  54 VRB7      29.80F
LONE ROCK      NOT AVBL
PLATTEVILLE    SUNNY     81  66  59 CALM      29.85F
FORT MC COY    MOSUNNY   83  65  55 S10       29.79S
VIROQUA        FAIR      81  66  61 S12G18    29.81F
WIS DELLS      NOT AVBL
$$

...ELSEWHERE IN WISCONSIN...


CITY           SKY/WX    TMP DP  RH WIND       PRES   REMARKS
MILWAUKEE      MOSUNNY   78  69  73 SE10      29.89S
MADISON        MOSUNNY   83  66  56 S14       29.86R
GREEN BAY      MOSUNNY   71  66  84 SE15      29.87S
EAU CLAIRE     MOSUNNY   82  70  66 S13       29.73S
BLACK RVR FLS  FAIR      82  68  63 S5        29.76F
MEDFORD        MOSUNNY   75  68  77 SE14      29.81F
WAUSAU         MOSUNNY   76  65  68 SE13      29.81F
WIS RAPIDS     PTSUNNY   81  67  62 S9        29.83S
MARSHFIELD     PTSUNNY   79  67  66 S12       29.81F
RICE LAKE      PTSUNNY   79  68  70 SE13      29.71F
$$

...NORTHEAST IOWA...


CITY           SKY/WX    TMP DP  RH WIND       PRES   REMARKS
WATERLOO       CLOUDY    82  72  71 S7        29.77F
DUBUQUE        MOSUNNY   82  69  64 S13       29.84S
DECORAH        PTSUNNY   81  72  74 S9        29.79S
MASON CITY     LGT RAIN  72  64  76 SW12G25   29.78S
CHARLES CITY   CLOUDY    75  70  83 SW14G32   29.79S HAZE
OELWEIN        CLOUDY    81  73  78 S12       29.81S
$$

...ELSEWHERE IN IOWA...


CITY           SKY/WX    TMP DP  RH WIND       PRES   REMARKS
DES MOINES     CLOUDY    84  73  69 SE10      29.73F HX  90
IOWA CITY      MOSUNNY   83  72  69 S10       29.82F
FORT DODGE     PTSUNNY   75  66  73 E7        29.72F
MARSHALLTOWN   CLOUDY    82  72  71 SE7       29.77F
CEDAR RAPIDS   MOSUNNY   82  73  74 S8        29.80F
$$

...NORTHERN ILLINOIS...


CITY           SKY/WX    TMP DP  RH WIND       PRES   REMARKS
CHICAGO-OHARE  MOSUNNY   83  61  47 SW12      29.90R
DUPAGE         PTSUNNY   83  68  60 S9        29.90S
CHICAGO-MIDWAY MOSUNNY   86  67  52 SW10      29.89S
MOLINE         MOSUNNY   86  69  56 S7        29.85F HX  90
ROCKFORD       MOSUNNY   82  68  62 S10       29.89F
STERLING       SUNNY     84  72  65 SW3       29.88S
PEORIA         SUNNY     85  71  63 S10       29.89S HX  90
$$

NOTE: "FAIR" INDICATES FEW OR NO CLOUDS BELOW 12,000 FEET WITH NO
SIGNIFICANT WEATHER AND/OR OBSTRUCTIONS TO VISIBILITY. WIND
SPEEDS ARE IN MILES-PER-HOUR.



USA.gov is the U.S. government's official web portal to all federal, state and local government web resources and services.